Hourly Data Report for March 10, 2012

All times are specified in Local Standard Time (LST). Add 1 hour to adjust for Daylight Saving Time where and when it is observed.

MIRAMICHI RCS
NEW BRUNSWICK

47°00'34.000" N
65°27'54.000" W
33.00 m
8100989
71744
ACQ

Download Data

Hourly Data (March 2012)
Hourly Data Report for March 10, 2012
TIME Temp Definition
°C
Dew Point Temp Definition
°C
Rel Hum Definition
%
Wind Dir Definition
10's deg

Wind Spd Definition
km/h
Visibility Definition
km
Stn Press Definition
kPa
Hmdx Definition


Wind Chill Definition


Weather Definition


00:00 -4.7 -12.9 53 32 6   101.54   -7 LegendNANA
01:00 -5.3 -12.6 56 31 6   101.63   -8 LegendNANA
02:00 -6.0 -12.8 59 31 6   101.71   -9 LegendNANA
03:00 -6.6 -12.6 62 30 7   101.80   -10 LegendNANA
04:00 -6.8 -12.6 63 29 6   101.91   -10 LegendNANA
05:00 -7.2 -13.2 62 31 6   102.01   -10 LegendNANA
06:00 -7.8 -13.3 65 31 6   102.08   -11 LegendNANA
07:00 -7.8 -13.7 63 32 7   102.18   -11 LegendNANA
08:00 -7.7 -14.6 58 33 11   102.28   -13 LegendNANA
09:00 -6.7 -14.6 53 33 11   102.37   -12 LegendNANA
10:00 -5.2 -14.2 49 32 7   102.44   -8 LegendNANA
11:00 -4.0 -14.6 43 32 7   102.47   -7 LegendNANA
12:00 -2.5 -16.4 33 32 7   102.46   -5 LegendNANA
13:00 -1.4 -17.2 29 32 6   102.41   -4 LegendNANA
14:00 -0.7 -16.5 29 24 7   102.38   -3 LegendNANA
15:00 -0.2 -16.0 29 5 6   102.38   -2 LegendNANA
16:00 0.5 -16.3 27 21 7   102.40     LegendNANA
17:00 0.0 -16.0 29 3 7   102.42   -2 LegendNANA
18:00 -1.9 -10.3 53 5 11   102.49   -6 LegendNANA
19:00 -3.8 -10.1 62 7 7   102.57   -7 LegendNANA
20:00 -5.0 -9.7 70 10 11   102.64   -10 LegendNANA
21:00 -5.9 -10.3 71 6 2   102.71   -7 LegendNANA
22:00 -7.4 -10.2 80   0   102.74     LegendNANA
23:00 -8.8 -11.0 84 5 2   102.73   -10 LegendNANA

Notes on Data Quality.

Legend

  • E = Estimated
  • M = Missing
  • NA = Not Available
Date modified: